EHI
0 0 0 0 0 0 0 0 0 1 2 3 3 3 5 7 9 9 9 22 45 56 51 48 46 39 29 19 10 5 4 3 2 3 3 1 1 1 0 0 0 0 2 4 4 3 3 2 1
0 0 0 0 0 0 0 0 1 2 2 2 2 4 5 6 8 8 9 21 42 53 49 49 50 42 30 19 12 8 6 5 4 4 4 3 2 2 1 0 0 1 3 4 4 3 3 3 2
0 0 0 0 0 0 0 0 1 1 1 1 3 5 7 6 6 7 9 19 37 48 50 55 56 48 35 22 14 11 8 7 7 6 7 6 6 4 3 3 3 3 4 4 3 3 3 3 3
0 0 0 0 0 0 0 0 0 0 1 2 6 9 8 6 5 5 8 17 31 44 53 58 58 53 40 27 19 15 12 11 11 12 12 10 9 8 7 6 6 6 5 4 3 3 3 3 4
0 0 0 0 0 0 0 0 0 1 2 5 10 12 10 6 5 5 7 15 28 43 52 55 57 55 45 33 24 20 18 17 17 18 17 14 13 13 12 10 10 9 6 4 3 3 4 6 7
0 0 0 0 0 0 0 1 1 3 5 8 13 15 13 9 6 7 8 15 28 42 50 52 53 53 47 38 28 23 22 21 22 22 20 17 16 16 16 14 12 11 9 6 4 4 5 9 11
0 0 0 0 0 0 1 2 3 5 7 9 13 15 14 11 9 9 11 16 27 40 46 48 48 46 42 36 29 25 23 23 23 22 20 16 15 16 16 15 13 13 12 9 6 5 6 9 12
0 0 0 0 1 2 2 3 4 7 9 10 11 14 14 12 11 13 14 17 26 36 42 42 42 39 35 31 28 26 26 26 24 21 18 15 13 12 12 13 15 16 15 13 9 6 6 8 10
0 0 0 0 1 3 4 4 4 7 10 12 13 14 14 12 12 16 18 22 29 36 38 37 38 36 31 28 28 28 27 27 25 22 20 17 13 10 9 14 22 23 20 17 11 7 7 9 10
0 0 0 0 1 2 3 4 4 6 9 12 16 18 16 14 15 19 23 28 32 37 38 36 35 34 30 29 31 29 26 26 25 24 22 17 14 11 10 17 27 28 22 18 14 10 9 9 9
0 0 0 0 1 2 2 3 5 6 6 10 16 20 19 17 17 21 26 30 33 37 37 36 36 36 33 34 35 31 27 26 26 25 23 20 17 14 12 18 25 26 22 18 14 12 10 8 8
0 0 0 0 0 1 3 4 5 6 5 8 15 20 18 17 18 22 26 30 34 37 36 36 41 44 43 43 42 35 29 27 26 27 28 27 23 18 17 19 23 24 21 18 14 12 12 9 8
0 0 0 0 1 2 5 6 6 5 5 8 13 16 17 17 19 23 26 30 36 38 36 37 44 51 52 52 49 40 33 30 29 31 33 32 28 23 21 23 26 25 22 19 15 13 13 11 9
0 0 0 0 1 4 7 8 7 5 5 8 11 14 18 19 19 21 24 28 32 35 37 38 41 47 50 52 50 42 36 34 33 35 37 33 27 25 24 26 29 28 24 23 20 16 14 13 11
0 0 0 0 1 3 6 8 8 7 6 7 10 15 21 21 19 17 18 22 26 31 36 38 38 39 41 43 44 40 37 36 36 38 39 33 25 24 27 28 30 29 26 26 25 20 18 16 14
0 0 0 0 0 2 4 7 8 8 7 6 8 15 20 19 17 15 14 16 21 28 35 37 35 33 34 38 39 37 37 38 37 38 36 30 24 23 26 28 29 29 27 25 24 23 23 20 17
0 0 0 0 1 2 4 6 8 7 6 5 8 13 16 15 14 12 11 13 18 25 31 35 33 30 30 34 36 34 35 37 38 38 35 30 24 22 23 25 25 26 25 23 22 22 23 21 17
0 0 0 1 2 3 5 8 9 7 6 7 10 12 13 11 9 8 9 12 16 21 27 30 30 29 29 32 33 31 31 33 35 37 34 30 25 22 21 22 22 24 24 22 19 20 21 18 14
0 0 1 2 3 4 5 9 11 10 8 8 9 11 12 10 9 8 7 10 14 18 21 24 26 28 29 30 29 28 27 29 31 32 30 27 25 23 21 21 22 23 23 20 19 19 17 14 12
0 0 1 2 3 4 5 8 14 15 11 7 7 9 10 9 9 10 8 7 10 14 17 19 23 27 29 28 27 25 25 26 26 25 25 24 23 22 20 19 20 21 21 19 19 18 14 11 10
0 0 0 1 2 3 3 7 14 17 12 7 5 6 7 7 9 10 8 6 6 10 14 17 22 25 26 24 22 20 20 21 21 21 22 22 21 21 19 17 17 19 20 21 20 17 13 9 7
0 0 0 0 1 1 2 5 12 15 11 7 5 5 4 5 7 8 8 7 6 8 12 17 20 22 21 19 17 16 14 15 17 20 21 20 19 19 17 14 13 15 19 21 20 17 13 9 6
0 0 0 0 0 0 1 3 8 11 11 9 7 5 3 4 6 7 7 8 7 8 11 14 17 19 19 17 16 16 14 13 15 18 19 19 19 17 15 12 11 12 16 19 19 18 14 10 6
0 0 0 0 0 0 0 2 4 7 10 11 10 7 5 5 6 7 7 7 7 7 8 11 14 17 17 16 16 16 15 13 14 15 16 18 18 17 13 11 11 12 14 18 19 17 14 9 6
0 0 0 0 0 0 0 1 3 5 8 10 10 8 7 6 6 6 6 5 4 4 4 7 11 13 14 14 15 15 14 14 14 14 15 16 16 16 13 12 12 12 13 16 17 15 11 7 5
0 0 0 0 0 0 0 2 4 5 5 5 7 8 8 6 5 4 4 4 2 2 3 5 8 9 10 11 12 13 12 13 13 12 12 12 12 12 11 10 10 11 11 12 13 12 8 5 3
0 0 0 0 0 0 1 2 4 3 1 2 3 5 5 4 3 3 3 2 1 1 2 4 6 6 7 7 9 9 9 9 9 10 10 9 8 8 8 8 9 9 8 9 10 9 7 5 2
0 0 0 0 0 0 1 2 2 1 0 1 1 2 3 4 3 3 2 1 0 1 2 3 3 3 4 5 5 5 5 6 6 7 7 7 6 6 6 7 8 6 6 7 7 6 5 4 2
0 0 0 0 0 0 0 1 1 1 0 0 0 1 3 4 2 2 2 1 1 1 1 2 2 2 3 4 3 3 4 6 6 5 5 6 6 5 5 6 5 4 3 4 4 4 4 3 2
0 0 0 0 0 0 0 1 2 1 0 0 0 1 2 2 1 1 2 1 2 2 1 1 2 2 4 4 3 3 5 6 6 4 4 5 6 5 5 4 2 1 1 2 3 3 3 3 3
Wind_Speed
9 11 10 8 7 5 3 3 4 8 9 10 9 9 12 11 8 7 6 8 16 18 16 15 14 12 12 11 10 9 8 8 7 7 6 6 6 6 6 6 5 5 5 5 4 4 4 3 3
9 12 9 7 6 3 1 1 5 7 7 6 8 8 10 10 10 9 7 7 16 17 15 13 14 13 12 11 10 9 8 8 7 7 6 6 5 5 5 5 5 5 5 5 5 5 4 4 4
13 14 8 7 4 3 2 5 6 8 7 5 6 8 8 7 9 8 7 8 14 16 15 14 15 12 11 11 10 9 8 7 6 6 6 5 5 5 5 5 5 5 5 5 5 5 5 5 5
9 8 7 7 4 2 4 5 4 5 6 7 6 8 9 8 8 9 9 9 13 15 15 15 14 13 11 10 9 9 8 7 6 6 5 5 5 5 5 5 5 5 5 5 5 5 5 5 5
10 8 10 6 4 2 3 4 2 4 5 7 7 8 10 9 9 8 8 8 10 13 15 14 14 12 11 10 9 8 8 7 6 5 5 5 4 4 5 5 5 5 5 6 6 6 6 6 6
7 8 8 4 3 2 3 3 3 3 5 7 6 7 7 7 8 6 8 6 10 12 13 13 14 13 11 10 9 8 7 7 6 5 5 5 5 5 5 5 5 6 6 6 6 6 6 7 7
9 9 9 7 4 0 3 3 3 2 5 5 5 6 6 8 7 6 7 7 9 11 12 10 10 10 10 10 9 8 8 7 7 6 6 5 5 6 6 6 7 7 6 6 7 7 8 8 8
9 9 11 7 3 2 3 3 3 4 5 6 6 5 5 5 6 6 7 7 7 8 11 10 9 9 8 8 10 9 8 8 7 7 7 6 7 7 7 7 7 7 7 7 8 8 9 10 10
12 10 8 5 3 2 3 3 3 6 6 8 7 6 6 6 6 7 6 5 6 6 7 7 8 8 7 8 9 10 9 7 7 6 6 6 4 5 6 7 7 8 8 9 9 9 10 11 12
9 7 7 5 4 3 3 3 1 5 5 6 6 6 7 6 6 6 5 5 6 6 5 5 6 6 6 5 6 5 5 5 4 3 3 4 4 4 5 6 9 9 9 9 10 11 11 10 6
9 7 5 4 4 4 3 3 4 2 3 5 6 6 7 7 6 5 5 5 5 5 4 4 4 3 3 2 3 2 2 3 3 3 3 3 2 3 3 2 3 5 7 6 7 8 6 5 4
8 7 5 4 2 2 3 2 3 5 4 6 6 6 6 6 5 4 4 4 4 5 5 3 3 3 2 2 2 2 1 2 2 3 2 2 2 2 1 1 1 2 2 3 4 3 4 4 4
9 6 5 3 2 1 0 1 3 4 5 5 6 6 6 5 5 5 5 5 6 5 4 3 3 3 2 1 0 1 1 2 3 2 2 2 1 1 2 1 2 3 2 3 3 3 4 4 4
8 6 6 5 3 3 2 2 2 2 5 6 6 5 6 6 6 6 6 6 5 5 3 2 2 3 2 1 0 1 1 1 1 1 2 2 1 1 2 2 2 2 2 2 3 3 3 3 3
9 9 8 7 6 5 3 1 2 2 4 6 6 6 7 7 6 6 6 5 5 4 3 1 2 2 1 1 1 1 1 0 0 0 1 1 1 1 2 2 1 1 2 2 2 3 2 2 3
11 9 8 5 5 5 4 2 4 3 3 5 6 7 7 7 7 6 6 5 5 4 4 2 2 2 1 0 1 1 1 0 0 0 0 0 1 2 2 1 1 2 2 2 2 1 1 2 2
7 7 6 5 5 4 2 3 6 4 3 5 6 6 7 7 7 6 5 6 5 4 4 3 3 3 2 2 1 1 1 1 0 0 0 0 1 2 1 2 2 2 2 1 2 1 2 3 3
7 8 8 5 2 3 1 3 6 7 5 5 5 5 5 6 5 5 5 5 4 4 3 2 2 3 2 2 2 2 1 1 1 0 0 1 1 2 2 2 2 2 2 1 1 1 2 2 2
9 10 9 4 0 3 3 3 6 6 5 4 5 5 5 5 5 5 4 4 4 3 2 2 2 2 1 1 2 2 2 2 1 1 0 1 1 2 2 2 2 2 2 1 2 2 3 3 2
9 10 9 7 4 5 4 3 4 5 4 4 5 5 4 4 4 3 3 3 3 3 2 2 2 2 2 1 2 2 2 2 2 1 1 1 1 2 2 2 1 1 2 2 2 2 2 2 2
7 8 8 8 7 8 6 4 4 5 4 4 3 4 4 2 3 2 3 3 3 3 2 3 2 1 2 2 2 2 2 2 2 2 1 1 2 2 2 1 1 2 2 1 2 2 3 2 3
9 8 10 11 10 8 6 4 5 6 5 3 2 2 2 3 3 3 4 4 3 3 3 3 2 1 1 2 2 3 3 3 3 2 1 1 2 2 1 1 2 2 2 2 3 2 3 3 3
9 10 11 14 12 11 7 3 4 6 3 2 2 2 2 2 2 3 4 4 4 4 4 3 2 1 1 1 2 3 3 3 3 3 2 2 2 2 1 1 2 2 2 2 3 2 3 2 2
9 11 13 11 7 7 5 2 2 3 1 3 3 3 4 4 3 4 5 5 4 4 4 3 2 2 2 2 2 3 3 4 4 3 3 2 1 1 1 1 1 2 2 2 2 2 3 2 3
8 9 7 6 3 3 4 1 5 5 5 6 5 4 4 4 5 5 5 4 4 4 4 4 3 3 2 2 2 3 3 4 3 3 3 3 1 1 1 1 1 2 2 3 2 3 3 3 4
7 7 5 7 6 6 4 3 6 7 7 6 6 6 6 5 5 4 4 4 4 4 4 4 3 3 3 2 2 3 3 3 2 3 3 2 2 2 1 1 2 2 3 3 3 3 3 3 3
7 6 6 6 9 7 2 5 6 7 6 6 6 6 6 5 5 4 3 3 3 3 3 3 3 3 3 3 2 2 2 2 3 3 3 2 2 2 1 2 2 2 3 3 3 3 3 3 4
5 7 5 5 5 5 3 3 3 4 4 6 6 6 5 5 5 5 4 3 2 2 2 2 2 3 3 3 3 3 3 2 2 3 3 3 3 2 2 3 3 3 3 3 3 3 3 3 3
5 5 5 6 6 5 5 3 3 3 4 5 6 6 6 6 5 4 4 3 2 2 3 2 3 3 3 3 3 3 3 3 2 2 3 3 3 3 3 3 3 3 3 3 3 4 3 3 3
3 4 4 4 5 6 4 2 4 5 5 5 6 6 6 6 6 5 5 4 3 4 4 3 3 3 3 3 3 3 3 3 3 2 2 3 3 3 3 3 4 4 3 2 3 4 4 3 3
Wind_Direction
246 246 238 245 244 236 294 323 53 53 49 46 37 45 55 46 47 89 97 92 108 118 126 130 129 131 132 133 134 134 135 135 137 142 147 148 150 153 157 159 163 168 172 176 180 186 191 194 201
258 252 244 242 253 257 285 29 58 69 64 53 56 60 69 62 65 91 90 100 115 121 129 130 133 134 136 137 137 137 139 140 142 144 148 155 158 164 168 171 177 181 185 191 195 202 208 213 217
260 255 256 248 249 273 358 62 66 77 76 56 66 65 60 62 72 90 108 116 115 121 126 129 135 135 137 139 141 142 143 146 148 151 152 158 168 174 179 184 189 193 197 202 207 213 220 224 228
257 242 237 254 284 313 26 35 43 70 69 66 58 71 71 56 73 98 118 120 118 122 124 131 137 137 139 142 145 147 149 151 152 156 158 163 174 183 189 194 200 204 209 214 216 221 227 230 233
248 253 246 251 285 316 64 61 13 63 66 67 60 70 76 69 80 99 116 118 117 119 123 133 138 139 142 145 148 151 154 154 156 161 168 178 186 192 199 203 210 213 216 221 224 228 232 233 239
258 261 266 263 265 287 66 73 49 29 65 63 70 85 88 90 89 92 106 108 109 116 121 131 141 143 147 151 151 153 155 159 163 168 178 188 194 201 206 211 219 223 225 227 232 236 239 238 242
259 283 285 278 256 110 73 56 56 20 64 46 51 79 94 88 92 93 102 101 101 114 121 131 141 145 152 154 153 157 163 168 172 178 187 196 207 212 212 213 222 226 230 232 237 241 248 249 245
265 280 279 280 294 51 76 64 53 50 54 48 39 67 88 102 115 105 98 99 107 120 124 138 144 148 157 156 159 172 176 178 181 190 199 209 218 220 220 218 221 227 232 235 238 239 244 249 248
258 267 288 319 344 31 58 57 61 73 62 58 54 73 110 125 115 106 102 105 107 108 120 133 141 152 165 166 162 178 182 179 185 198 206 211 219 223 216 219 210 220 231 236 238 240 243 249 248
244 265 300 329 347 7 16 40 4 85 59 66 70 85 110 114 111 112 115 112 103 106 117 127 137 154 167 166 156 176 179 169 188 192 195 215 225 235 230 203 210 219 230 239 240 243 245 245 245
257 271 302 323 348 333 360 20 32 77 75 64 73 91 102 93 88 96 97 92 100 100 96 105 114 132 152 133 144 172 173 160 187 202 203 223 238 245 237 206 210 223 230 236 240 237 236 237 241
273 285 289 300 310 307 329 354 43 52 52 73 84 96 93 99 97 87 87 93 79 79 75 65 89 99 101 105 144 167 171 159 192 201 207 217 231 255 247 232 219 231 232 237 238 233 237 239 244
277 272 280 287 286 258 255 71 73 78 92 100 97 94 90 86 98 100 83 75 68 59 55 49 55 82 76 78 197 160 199 186 192 182 185 233 224 256 261 248 222 237 232 230 245 246 250 248 249
293 286 270 250 224 215 204 144 133 143 120 104 98 94 89 83 73 74 76 68 69 67 53 26 74 83 73 65 19 238 233 209 192 168 176 218 239 242 259 254 242 255 259 249 246 255 255 251 255
273 271 262 244 219 199 178 163 114 104 112 112 111 98 90 81 76 69 74 70 70 72 62 343 113 93 99 101 270 259 282 114 264 215 141 186 261 270 261 266 267 283 275 267 261 264 256 258 262
266 255 264 261 236 205 206 171 120 155 147 122 113 100 91 78 71 65 69 73 72 63 59 28 32 50 50 16 282 299 314 340 35 79 77 119 280 293 292 287 293 290 284 278 267 281 297 283 280
285 283 271 256 240 235 211 154 150 162 136 118 109 105 101 89 69 60 58 72 71 70 61 41 48 32 14 341 308 304 304 316 314 83 66 267 278 290 297 288 286 288 295 291 299 319 286 288 287
314 298 284 270 222 262 251 161 155 156 144 131 116 109 105 97 87 76 56 63 72 75 68 51 69 53 359 348 323 312 320 315 316 297 355 307 268 279 280 268 288 291 280 280 296 299 277 270 274
306 300 302 300 104 251 220 181 166 156 150 139 129 117 105 99 99 89 68 53 61 71 74 67 60 63 4 359 321 311 303 303 296 264 218 291 286 287 276 294 282 282 281 292 297 296 296 286 281
300 307 316 323 333 290 255 192 168 138 139 116 112 103 86 83 74 67 65 57 53 56 59 71 57 39 2 342 297 285 297 286 273 287 252 249 257 271 271 279 291 293 291 294 286 282 278 284 296
307 304 307 309 301 274 256 232 160 146 115 102 88 89 90 69 49 19 4 38 37 39 44 38 48 35 3 332 321 327 304 288 292 291 255 257 257 255 274 274 285 291 280 283 279 274 276 285 287
308 317 312 297 286 274 262 262 159 140 130 119 96 67 65 40 18 1 351 13 30 29 33 45 37 29 353 325 331 314 306 306 310 310 301 293 267 259 248 277 283 278 285 283 284 292 276 271 283
312 313 296 284 276 274 263 266 122 142 142 111 76 49 31 35 8 357 3 21 27 25 25 32 31 25 347 310 305 298 311 308 311 315 313 285 272 251 222 212 252 270 274 278 284 291 281 270 275
316 310 297 281 268 267 297 301 98 118 98 77 57 25 11 358 19 29 18 28 27 17 11 15 15 11 351 318 311 305 311 305 303 304 303 296 283 273 291 262 271 278 282 281 280 277 280 281 276
327 323 317 315 296 284 310 29 83 71 66 69 60 36 19 13 32 33 22 19 9 3 2 3 6 349 334 318 318 313 309 298 293 294 301 299 297 301 305 318 297 286 287 278 273 274 272 274 274
328 329 322 313 312 309 312 76 91 75 66 55 53 35 20 17 26 24 18 13 8 2 0 354 359 341 330 323 313 302 311 305 309 313 306 301 303 308 317 308 284 276 276 286 278 267 265 267 265
324 323 323 298 292 301 19 93 92 52 50 50 42 27 18 12 13 10 14 18 3 351 1 348 346 342 337 336 321 305 319 314 322 315 302 303 304 295 318 298 291 292 292 290 285 275 274 273 265
330 338 335 319 311 312 324 36 49 17 20 27 24 23 14 9 11 5 358 4 358 354 13 356 348 338 336 342 324 332 321 305 309 309 316 312 314 324 306 297 294 286 280 282 281 280 271 273 270
350 349 338 322 321 319 324 21 54 29 37 23 18 24 14 5 -0 1 352 352 12 357 360 349 335 327 337 339 342 330 322 323 316 317 323 323 317 309 298 305 302 294 290 294 292 289 280 276 277
17 347 339 324 324 318 320 56 63 52 46 28 23 27 18 4 355 1 5 9 15 4 353 347 342 337 342 348 347 346 345 336 323 326 318 309 310 310 310 307 304 305 311 308 301 302 301 294 288